Cutler
DateTemperatureDew Point
08/31 - 05:15 PM92.6°55.7°
08/31 - 05:00 PM93.4°56.2°
08/31 - 04:45 PM93.4°56.1°
08/31 - 04:30 PM93.7°55.7°
08/31 - 04:15 PM94.7°56.1°
08/31 - 04:00 PM94.7°55.7°
08/31 - 03:45 PM94.5°55.3°
08/31 - 03:30 PM95.1°55.0°
08/31 - 03:15 PM94.2°55.5°
08/31 - 03:00 PM93.6°54.8°
08/31 - 02:45 PM93.4°55.3°
08/31 - 02:30 PM92.5°54.0°
08/31 - 02:15 PM91.8°54.8°
08/31 - 02:00 PM90.7°53.2°
08/31 - 01:45 PM90.1°53.0°
08/31 - 01:30 PM89.5°53.4°
08/31 - 01:15 PM89.1°54.4°
08/31 - 01:00 PM88.1°56.3°
08/31 - 12:45 PM86.9°56.9°
08/31 - 12:30 PM86.2°56.8°
08/31 - 12:15 PM86.3°57.1°
08/31 - 12:00 PM85.9°56.4°
08/31 - 11:45 AM85.0°56.2°
08/31 - 11:30 AM83.8°55.2°
08/31 - 11:15 AM83.3°55.0°
08/31 - 11:00 AM82.6°54.9°
08/31 - 10:45 AM81.2°54.7°
08/31 - 10:30 AM79.8°54.3°
08/31 - 10:15 AM78.3°53.6°
08/31 - 10:00 AM76.9°53.8°
08/31 - 09:45 AM75.2°54.8°
08/31 - 09:30 AM73.7°54.8°
08/31 - 09:15 AM72.3°54.7°
08/31 - 09:00 AM70.9°54.6°
08/31 - 08:45 AM68.4°54.4°
08/31 - 08:30 AM66.3°55.5°
08/31 - 08:15 AM64.7°55.5°
08/31 - 08:00 AM62.7°56.0°
08/31 - 07:45 AM59.9°55.6°
08/31 - 07:30 AM58.0°55.4°
08/31 - 07:15 AM56.8°54.5°
08/31 - 07:00 AM56.2°53.8°
08/31 - 06:45 AM55.0°52.6°
08/31 - 06:30 AM55.6°52.9°
08/31 - 06:15 AM54.7°51.8°
08/31 - 06:00 AM55.9°53.0°
08/31 - 05:45 AM56.1°53.0°
08/31 - 05:30 AM56.3°52.9°
08/31 - 05:15 AM56.6°53.1°
08/31 - 05:00 AM57.0°53.4°
08/31 - 04:45 AM57.3°53.6°
08/31 - 04:30 AM57.6°53.5°
08/31 - 04:15 AM58.0°53.7°
08/31 - 04:00 AM58.4°53.9°
08/31 - 03:45 AM58.3°53.6°
08/31 - 03:30 AM58.7°53.9°
08/31 - 03:15 AM58.8°53.8°
08/31 - 03:00 AM58.7°53.6°
08/31 - 02:45 AM58.9°53.3°
08/31 - 02:30 AM59.5°53.1°
08/31 - 02:15 AM59.8°53.8°
08/31 - 02:00 AM60.3°53.8°
08/31 - 01:45 AM61.0°54.2°
08/31 - 01:30 AM61.6°53.9°
08/31 - 01:15 AM61.9°53.3°
08/31 - 01:00 AM62.3°54.3°
08/31 - 12:45 AM62.5°54.1°
08/31 - 12:30 AM63.1°54.9°
08/31 - 12:15 AM63.3°55.7°
08/31 - 12:00 AM63.7°55.7°
08/30 - 11:45 PM64.5°55.9°
08/30 - 11:30 PM65.2°55.6°
08/30 - 11:15 PM65.5°55.2°
08/30 - 11:00 PM65.5°55.6°
08/30 - 10:45 PM65.4°56.1°
08/30 - 10:30 PM65.3°57.1°
08/30 - 10:15 PM65.8°58.6°
08/30 - 10:00 PM66.4°58.8°
08/30 - 09:45 PM67.2°59.2°
08/30 - 09:30 PM68.1°59.6°
08/30 - 09:15 PM68.8°59.7°
08/30 - 09:00 PM69.4°60.4°
08/30 - 08:45 PM70.3°60.7°
08/30 - 08:30 PM71.0°60.9°
08/30 - 08:15 PM71.9°60.9°
08/30 - 08:00 PM73.3°61.4°
08/30 - 07:45 PM74.9°61.8°
08/30 - 07:30 PM77.0°63.8°
08/30 - 07:15 PM79.6°66.0°
08/30 - 07:00 PM82.0°67.1°
08/30 - 06:45 PM84.3°66.9°
08/30 - 06:30 PM86.5°65.6°
08/30 - 06:15 PM88.5°62.8°
08/30 - 06:00 PM90.3°58.3°
08/30 - 05:45 PM91.6°57.1°
08/30 - 05:30 PM92.7°58.7°
08/30 - 05:15 PM93.4°58.2°
08/30 - 05:00 PM93.8°58.8°
08/30 - 04:45 PM94.5°59.2°
08/30 - 04:30 PM94.7°60.3°
08/30 - 04:15 PM94.7°60.6°
08/30 - 04:00 PM95.1°60.9°
08/30 - 03:45 PM95.1°61.6°
08/30 - 03:30 PM94.5°61.9°
08/30 - 03:15 PM94.2°60.9°
08/30 - 03:00 PM93.7°60.5°
08/30 - 02:45 PM93.6°60.3°
08/30 - 02:30 PM93.1°60.3°
08/30 - 02:15 PM91.6°58.5°
08/30 - 02:00 PM90.8°57.9°
08/30 - 01:45 PM89.8°58.4°
08/30 - 01:30 PM88.7°58.3°
08/30 - 01:15 PM88.2°58.1°
08/30 - 01:00 PM87.1°57.8°
08/30 - 12:45 PM86.5°57.6°
08/30 - 12:30 PM86.1°57.2°
08/30 - 12:15 PM85.6°57.1°
08/30 - 12:00 PM85.0°56.9°
08/30 - 11:45 AM83.5°57.0°
08/30 - 11:30 AM82.6°56.7°
08/30 - 11:15 AM82.1°57.0°
08/30 - 11:00 AM81.7°57.6°
08/30 - 10:45 AM80.6°57.6°
08/30 - 10:30 AM79.1°57.9°
08/30 - 10:15 AM77.5°58.7°
08/30 - 10:00 AM76.0°58.2°
08/30 - 09:45 AM74.5°57.8°
08/30 - 09:30 AM73.4°57.7°
08/30 - 09:15 AM72.4°57.8°
08/30 - 09:00 AM71.3°57.8°
08/30 - 08:45 AM69.5°57.3°
08/30 - 08:30 AM66.8°57.6°
08/30 - 08:15 AM64.9°56.9°
08/30 - 08:00 AM61.9°58.1°
08/30 - 07:45 AM60.2°57.9°
08/30 - 07:30 AM59.0°56.7°
08/30 - 07:15 AM58.2°55.7°
08/30 - 07:00 AM57.5°54.7°
08/30 - 06:45 AM57.3°54.0°
08/30 - 06:30 AM57.3°53.6°
08/30 - 06:15 AM57.6°53.3°
08/30 - 06:00 AM57.9°53.4°
08/30 - 05:45 AM58.3°53.5°
08/30 - 05:30 AM58.8°53.5°
08/30 - 05:15 AM59.5°53.1°
08/30 - 05:00 AM60.2°52.3°
08/30 - 04:45 AM61.0°52.1°
08/30 - 04:30 AM61.8°51.6°
08/30 - 04:15 AM62.0°51.3°
08/30 - 04:00 AM61.9°50.3°
08/30 - 03:45 AM61.0°51.8°
08/30 - 03:30 AM60.8°53.2°
08/30 - 03:15 AM60.7°54.0°
08/30 - 03:00 AM61.0°54.8°
08/30 - 02:45 AM61.5°55.7°
08/30 - 02:30 AM61.5°55.4°
08/30 - 02:15 AM61.5°56.5°
08/30 - 02:00 AM61.8°57.2°
08/30 - 01:45 AM61.7°57.4°
08/30 - 01:30 AM61.9°58.0°
08/30 - 01:15 AM62.2°58.3°
08/30 - 01:00 AM63.1°59.0°
08/30 - 12:45 AM63.6°59.7°
08/30 - 12:30 AM64.1°60.3°
08/30 - 12:15 AM64.3°60.3°
08/30 - 12:00 AM64.9°60.8°
08/29 - 11:45 PM65.5°61.2°
08/29 - 11:30 PM65.8°61.3°
08/29 - 11:15 PM66.1°61.6°
08/29 - 11:00 PM66.8°62.2°
08/29 - 10:45 PM67.7°62.4°
08/29 - 10:30 PM68.5°62.7°
08/29 - 10:15 PM69.0°62.4°
08/29 - 10:00 PM69.5°62.2°
08/29 - 09:45 PM70.2°63.0°
08/29 - 09:30 PM69.9°63.0°
08/29 - 09:15 PM71.3°64.3°
08/29 - 09:00 PM72.4°65.3°
08/29 - 08:45 PM73.2°65.4°
08/29 - 08:30 PM74.0°65.6°
08/29 - 08:15 PM75.0°66.1°
08/29 - 08:00 PM76.3°67.2°
08/29 - 07:45 PM77.7°67.5°
08/29 - 07:30 PM79.5°68.4°
08/29 - 07:15 PM81.7°70.6°
08/29 - 07:00 PM83.6°71.3°
08/29 - 06:45 PM85.5°70.0°
08/29 - 06:30 PM87.7°68.6°
08/29 - 06:15 PM89.8°66.6°
08/29 - 06:00 PM91.7°64.7°